#timestamp,LO_Frequency,Hit,StdDev 
1553083215.5,286046998.2,N
1553083235.3,286046998.5,N
1553083255.2,286046998.8,N
1553083275.9,286046998.7,N
1553083295.7,286046999.4,N
1553083315.6,286046999.5,N
1553083335.4,286046999.5,N
1553083355.2,286046999.6,N
1553083375.1,286046999.0,N
1553083376.0,286046999.0,N
1553083395.8,286046998.7,N
1553083415.7,286046998.8,N
1553083435.5,286046996.9,N
1553083455.3,286046996.9,N
1553083475.2,286046999.0,N
1553083495.0,286047000.3,N
1553083495.9,286047000.3,N
1553083515.7,286047002.1,N
1553083535.6,286047000.7,N
1553083555.4,286046998.6,N
1553083575.3,286046999.1,N
1553083595.1,286046996.7,N
1553083596.0,286046996.7,N
1553083615.8,286046999.1,N
1553083635.7,286046997.7,N
1553083655.5,286046997.1,N
1553083675.4,286046997.5,N
1553083695.2,286046997.9,N
1553083715.0,286046999.1,N
1553083715.9,286046999.1,N
1553083735.8,286046996.5,N
1553083755.6,286046996.7,N
1553083775.4,286046997.3,N
1553083795.3,286046999.5,N
1553083815.1,286046997.1,N
1553083835.9,286046999.4,N
1553083855.7,286046998.4,N
1553083875.5,286046997.2,N
1553083895.4,286046997.6,N
1553083915.2,286046999.1,N
1553083935.0,286046996.7,N
1553083935.9,286046996.7,N
1553083955.8,286046996.6,N
1553083975.6,286046999.6,N
1553083995.5,286046999.5,N
1553084015.3,286046998.7,N
1553084035.1,286046999.5,N
1553084055.9,286046999.5,N
1553084075.7,286046998.6,N
1553084095.5,286046999.1,N
1553084115.4,286046996.9,N
1553084135.2,286046998.8,N
1553084155.1,286047000.3,N
1553084156.0,286047000.3,N
1553084175.8,286047000.6,N
1553084195.6,286046998.4,N
1553084215.5,286046996.6,N
1553084235.3,286046998.3,N
1553084255.1,286047000.8,N
1553084275.9,286047000.9,N
1553084295.7,286047000.6,N
1553084315.6,286047000.9,N
1553084335.4,286047000.1,N
1553084355.2,286047000.3,N
1553084375.1,286047000.7,N
1553084376.0,286047000.7,N
1553084395.8,286047000.7,N
1553084415.6,286047001.2,N
1553084435.5,286046998.7,N
1553084455.3,286047001.1,N
1553084475.2,286047000.9,N
1553084495.9,286046999.9,N
1553084515.7,286047002.5,N
1553084535.6,286047002.3,N
1553084555.4,286047002.5,N
1553084575.2,286047004.1,N
1553084595.1,286047001.5,N
1553084596.0,286047001.5,N
1553084615.8,286047002.1,N
1553084635.7,286047001.8,N
1553084655.5,286047001.8,N
1553084675.3,286047004.1,N
1553084695.2,286047004.4,N
1553084715.9,286047002.4,N
1553084735.7,286047001.5,N
1553084755.6,286047002.3,N
1553084775.4,286047002.7,N
1553084795.3,286047000.2,N
1553084815.1,286047003.9,Y
1553084816.0,286047003.9,P
1553084835.8,286047002.2,N
1553084855.7,286047002.2,N
1553084875.5,286047001.8,N
1553084895.3,286047002.4,N
1553084915.2,286047002.8,Y
1553084935.0,286046998.4,P
1553084935.9,286046998.4,N
1553084955.8,286047000.5,N
1553084975.6,286047001.2,N
1553084995.4,286047000.9,N
1553085015.3,286047000.8,N
1553085035.1,286047001.1,N
1553085055.9,286047001.2,N
1553085075.7,286046998.5,N
1553085095.5,286046998.2,N
1553085115.4,286046998.8,N
1553085135.2,286046998.4,N
1553085155.0,286047000.8,N
1553085155.9,286047000.8,N
1553085175.8,286046998.4,N
1553085195.6,286046998.2,N
1553085215.4,286047000.4,N
1553085235.3,286046998.5,N
1553085255.1,286046998.8,N
1553085275.9,286046999.0,N
1553085295.7,286046999.2,N
1553085315.5,286046999.2,N
1553085335.4,286046996.6,N
1553085355.2,286047001.1,N
1553085375.1,286046998.4,N
1553085376.0,286046998.4,N
1553085395.8,286047000.8,N
1553085415.6,286047002.8,N
1553085435.5,286046998.2,N
1553085455.3,286047000.8,N
1553085475.1,286047001.0,N
1553085495.9,286047002.2,N
1553085515.7,286047000.5,N
1553085535.6,286046998.1,N
1553085555.4,286047000.2,N
1553085575.2,286047000.6,N
1553085595.1,286047002.7,N
1553085596.0,286047002.7,N
1553085615.8,286047000.4,N
1553085635.6,286047001.5,N
1553085655.5,286047000.2,N
1553085675.3,286047002.3,N
1553085695.2,286047001.2,N
1553085715.9,286047000.9,N
1553085735.7,286047000.5,N
1553085755.6,286046999.9,N
1553085775.4,286046998.2,N
1553085795.2,286047000.7,N
1553085815.1,286047000.6,N
1553085816.0,286047000.6,N
1553085835.8,286047002.3,N
1553085855.7,286047000.1,N
1553085875.5,286047000.0,N
1553085895.3,286047002.4,N
1553085915.2,286047000.6,N
1553085935.0,286047000.6,N
1553085935.9,286047000.6,N
1553085955.7,286047001.1,N
1553085975.6,286047000.1,N
1553085995.4,286047000.9,N
1553086015.3,286047000.7,N
1553086035.1,286047000.5,N
1553086036.0,286047000.5,N
1553086055.8,286046998.8,N
1553086075.7,286046998.1,N
1553086095.5,286046998.9,N
1553086115.4,286047000.4,N
1553086135.2,286047000.7,N
1553086155.0,286047002.6,N
1553086155.9,286047002.6,N
1553086175.8,286047002.3,N
1553086195.6,286047000.5,N
1553086215.4,286047000.8,N
1553086235.3,286047000.3,N
1553086255.1,286047000.3,N
1553086275.9,286046998.4,N
1553086295.7,286047000.1,N
1553086315.5,286047000.4,N
1553086335.4,286046998.6,N
1553086355.2,286046998.7,N
1553086375.0,286046998.6,N
1553086375.9,286046998.6,N
1553086395.8,286046998.2,N
1553086415.6,286046996.6,N
1553086435.5,286046998.4,N
1553086455.3,286047000.6,N
1553086475.1,286047000.2,N
1553086495.9,286047002.3,N
1553086515.7,286047000.1,N
1553086535.5,286046999.9,N
1553086555.4,286047000.5,N
1553086575.2,286047001.2,N
1553086595.0,286046998.3,N
1553086596.0,286046998.3,N
1553086615.8,286046998.9,N
1553086635.6,286046998.5,N
1553086655.5,286046998.6,N
1553086675.3,286046998.3,N
1553086695.1,286046998.4,N
1553086715.9,286046998.9,N
1553086735.7,286046998.8,N
1553086755.6,286047001.2,N
1553086775.4,286047001.1,N
1553086795.2,286046998.8,N
